Regional Weather Roundup
Issued by NWS

Current Version |  Previous Version |  Text Only |  Print | Product List |  Glossary On
Versions: 1 2 3 4 5 6 7 8 9 10 11 12 13 14 15 16 17 18 19 20 21 22 23 24 25 26 27
278
ASUS45 KTFX 280310
RWRMT
Montana Regional Weather Roundup
National Weather Service Great Falls MT
900 PM MDT MON MAY 27 2024

NOTE: "FAIR" indicates few or no clouds below 12,000 feet with no
significant weather and/or obstructions to visibility.

MTZ001>007-043-280400-
West of the divide

CITY           SKY/WX    TMP DP  RH WIND       PRES   REMARKS
Kalispell      PTCLDY    64  45  49 CALM      30.07F
Missoula       PTCLDY    68  45  43 N5        30.08S
Butte          PTCLDY    64  33  31 NW6       30.19R
Anaconda         N/A     59  37  44 CALM      30.18
Deer Lodge       N/A     57  50  77 CALM      30.20
Hamilton       PTCLDY    64  43  45 CALM      30.09S
Mullan Pass    PTCLDY    54  33  45 VRB3      30.19S
Plains         PTCLDY    66  48  52 SW9       30.04S
Thompson Falls   N/A     68  48  49 CALM      30.09S
$$

MTZ008-052>055-280400-
Southwest Montana

CITY           SKY/WX    TMP DP  RH WIND       PRES   REMARKS
Bozeman        PTCLDY    61  41  47 SE5       30.14S
Dillon         PTCLDY    63  35  35 E3        30.14S
Ennis          CLEAR     55  39  54 E8        30.21S
Three Forks      N/A     66  43  42 CALM      30.11R
Twin Bridges   FAIR      63  45  51 E8        30.14S
W Yellowstone  CLEAR     55  34  44 SW6       30.23S
$$

MTZ009-010-012-014-046-048-049-054-280400-
East Slopes and Central Montana

CITY           SKY/WX    TMP DP  RH WIND       PRES   REMARKS
Cut Bank       PTCLDY    56  39  53 W7        30.10S
Great Falls    CLEAR     64  39  39 CALM      30.09S
Helena         PTCLDY    64  38  38 W6        30.10R
Malmstrom AFB  CLEAR     65  38  37 E5        30.08R
Augusta        PTCLDY    58  34  41 NW10      30.10S
Bowmans Corner PTCLDY    58  33  39 NW8       30.06R
Choteau          N/A     61  37  41 N6        30.10
Fairfield      CLEAR     65  34  32 SW3       30.07R
Power          CLEAR     60  33  36 NE7       30.07R
Raynesford     CLEAR     59  41  52 CALM      30.09S
Ulm            CLEAR     57  43  60 SE5       30.06S
$$

MTZ011-013-016-021-045-047-050-051-280400-
North Central Montana

CITY           SKY/WX    TMP DP  RH WIND       PRES   REMARKS
Havre          CLEAR     64  39  39 NE6       30.07R
Lewistown      CLEAR     61  35  37 CALM      30.15R
Chinook          N/A     66  39  37 CALM      30.08
Denton         CLEAR     62  38  40 CALM      30.11R
Fort Benton    CLEAR     62  39  42 NE6       30.07R HAZE
Geyser         CLEAR     61  37  41 CALM      30.11R
Grass Range    CLEAR     61  37  41 CALM      30.08R
Judith Gap     CLEAR     56  40  55 N5        30.14R
N Bar Ranch    CLEAR     54  37  54 SW5       30.17R
Roy            CLEAR     62  36  38 CALM        N/A
Stanford       CLEAR     58  37  46 CALM      30.13R
Winifred       CLEAR     57  39  51 E5        30.10R
$$

MTZ017>020-022>027-061-062-280400-
Northeast Montana

CITY           SKY/WX    TMP DP  RH WIND       PRES   REMARKS
Glasgow        PTCLDY    64  44  48 NE6       30.06S
Circle           N/A     61  43  51 NW5       30.06R
Culbertson     CLOUDY    59  50  72 CALM      30.06R
Glendive       PTCLDY    61  45  55 NE5       30.09R
Jordan           N/A     58  41  53 NW10      30.09R
Malta          CLEAR     63  48  59 E5        30.06R
Plentywood     MOCLDY    59  41  51 NE8       30.08R
Poplar         PTCLDY    57  48  72 SE12      30.08R
Sidney         MOCLDY    56  50  80 CALM      30.09R
Wolf Point     CLOUDY    61  46  57 E3        30.07R
$$

MTZ028>42-056>058-280400-
Southcentral and southeast Montana

CITY           SKY/WX    TMP DP  RH WIND       PRES   REMARKS
Baker          CLEAR     55  42  61 W7        30.11R
Big Timber     CLEAR     63  34  34 CALM      30.16S
Billings       PTCLDY    66  37  34 CALM      30.13R
Hardin         CLEAR     61  43  51 E8        30.11R
Harlowton      FAIR      57  37  46 NE9       30.12R
Laurel           N/A     64  37  36 CALM      30.14
Livingston     CLEAR     56  41  57 S5        30.15R
Miles City     CLEAR     60  43  53 W5        30.10R
Roundup          N/A     63  37  39 N5        30.04R
$$

Regional Reports...Dakotas/MN

CITY           SKY/WX    TMP DP  RH WIND       PRES   REMARKS
Williston      PTCLDY    58  42  55 NE10      30.07R
Minot          PTCLDY    56  41  57 W10       30.01R
Dickinson      CLOUDY    57  47  69 NW7       30.06R
Beach          FAIR      55  45  67 N5        30.11R
Bowman         MOCLDY    59  45  58 CALM      30.10R
Crosby         FAIR      54  37  54 W8        30.06R
Glen Ullin     FAIR      54  52  94 W5        30.05R
Hettinger      PTCLDY    51  44  77 CALM      30.09R
Tioga          MOCLDY    55  41  58 N5        30.09R
Watford City   MOCLDY    54  54 100 NE6       30.08R
Bismarck       LGT RAIN  59  50  72 NW10      30.03R
Grand Forks    MOCLDY    52  48  86 W5        29.97R
Fargo          CLOUDY    58  53  84 N8        29.99
Buffalo SD       N/A     57  41  55 NW13      30.08R
Rapid City     CLEAR     53  42  66 N9        30.12R
Intl Falls     MOCLDY    51  42  71 NW3       29.90R
Duluth         CLOUDY    57  46  66 NW9       29.88R
Minneapolis    MOCLDY    57  55  93 NW3       29.90R
$$

Regional Reports...WY/CO/ID/WA/OR

CITY           SKY/WX    TMP DP  RH WIND       PRES   REMARKS
Buffalo WY     CLEAR     55  40  56 NW7       30.20R
Cody           CLEAR     59  38  45 NW5       30.21R
Gillette       CLEAR     48  41  76 CALM      30.18R
Powell         FAIR      57  32  38 N5        30.19R
Sheridan       CLEAR     52  44  74 W3        30.17R
Yellowstone La   N/A     43  34  70 NW5       30.33R
Boise          CLEAR     78  36  21 N6        29.99S
Couer d`Alene    N/A     70  45  40 W3        30.05F
Idaho Falls    CLEAR     69  30  23 E5        30.16F
Salmon         PTCLDY    65  40  39 S5        30.09S
Spokane        MOCLDY    73  40  30 S5        30.04F
Seattle        MOCLDY    59  46  62 NW8       30.09F
Portland       MOCLDY    70  50  49 W6        30.04S
$$

Other Reports

CITY           SKY/WX    TMP DP  RH WIND       PRES   REMARKS
Atlanta        PTCLDY    74  69  85 SW8       29.98R
Anchorage      PTSUNNY   55  42  61 VRB6      29.86S
Boston         HVY RAIN  67  66  97 S16       29.76F FOG
Chicago        MOCLDY    64  53  67 N3        29.84R
Fairbanks      PTSUNNY   63  38  39 NW13      29.69S
Houston        CLOUDY    85  79  82 SE12      29.95R HX  98
Las Vegas NV   PTCLDY    93  27   9 VRB7      29.88R
Phoenix AZ     CLEAR     97  25   7 NW7       29.83R HX  90
Salt Lake City PTCLDY    73  41  31 NW7       30.08S
San Diego      MOCLDY    60  52  74 NW7       30.05R
San Francisco  MOCLDY    55  48  77 W17       30.04R
Washington Dul CLEAR     68  63  84 SW5       29.76R
$$

Regional Reports...Alberta

CITY           SKY/WX    TMP DP  RH WIND       PRES   REMARKS
Calgary        MOCLDY    64  32  29 W13       30.00R
Cardston         N/A     61  39  44 SW7         N/A
Crowsnest Pass   N/A     59  36  41 W5          N/A
Del Bonita       N/A     52  39  62 SW12        N/A
Edmonton       CLOUDY    64  36  34 CALM      29.93F
Fort McMurray  CLOUDY    61  46  59 E5        29.93F
High Level     CLEAR     59  43  55 S7        29.83F
Lethbridge     MOCLDY    59  39  47 SW6       30.04R
Medicine Hat   MOCLDY    64  41  42 E5        30.03S
Milk River       N/A     57  41  54 W6          N/A
Onefour          N/A     63  39  42 NW2         N/A
Pincher Creek  MOCLDY    57  37  47 W10       30.09R
Raymond          N/A     61  39  44 W8          N/A
Waterton Gate    N/A     59  36  41 SW12G17     N/A
$$

Regional Reports...Saskatchewan

CITY           SKY/WX    TMP DP  RH WIND       PRES   REMARKS
Assiniboia       N/A     57  43  58 SE2         N/A
Coronach         N/A     54  50  87 VRB38       N/A
Cypress Hills    N/A     52  34  50 N2          N/A
Estevan        CLEAR     54  37  54 N9        30.06R
Moose Jaw        N/A     57  32  38 E7          N/A
Prince Albert  PTCLDY    57  37  47 SE8       30.09R
Regina         PTCLDY    59